Regional Weather Roundup
Issued by NWS

Home | Current Version | Previous Version | Text Only | Print | Product List | Glossary Off
Versions: 1 2 3 4 5 6 7 8 9 10 11 12 13 14 15 16 17 18 19 20 21 22 23 24 25 26 27 28 29 30 31 32 33 34 35 36 37 38 39 40 41 42 43 44 45 46 47 48 49 50

000
ASUS43 KMKX 141400
RWRWI

WISCONSIN REGIONAL WEATHER ROUNDUP
NATIONAL WEATHER SERVICE MILWAUKEE/SULLIVAN WI
900 AM CDT MON JUL 14 2014

NOTE: "FAIR" INDICATES FEW OR NO CLOUDS BELOW 12,000 FEET WITH NO
SIGNIFICANT WEATHER AND/OR OBSTRUCTIONS TO VISIBILITY.

WIZ001-002-006>008-014>016-023>028-141500-
NORTHWEST WISCONSIN

CITY           SKY/WX    TMP DP  RH WIND       PRES   REMARKS
SUPERIOR ARPT  CLOUDY    56  49  79 W6        29.85R
ASHLAND        CLOUDY    55  51  86 VRB5      29.85R
HAYWARD        CLOUDY    54  50  86 VRB6      29.87S
SIREN          CLOUDY    55  51  85 NW9       29.89S
RICE LAKE      PTSUNNY   57  47  69 NW16G22   29.89R
LADYSMITH      CLOUDY    58  51  77 W8        29.88R
EAU CLAIRE     NOT AVBL
MENOMONIE      PTSUNNY   61  51  70 W12G17    29.89R
NEW RICHMOND   CLOUDY    59  48  67 NW17G23   29.90R
OSCEOLA        PTSUNNY   59  48  68 W18G25    29.93R
$$

WIZ003>005-009-010-017-018-141500-
NORTH CENTRAL WISCONSIN

CITY           SKY/WX    TMP DP  RH WIND       PRES   REMARKS
WOODRUFF       CLOUDY    59  53  79 W3        29.84S
RHINELANDER    CLOUDY    56  50  80 W7        29.86R
EAGLE RIVER    PTSUNNY   55  50  82 CALM      29.84S
LAND O LAKES   CLOUDY    56  49  80 W5        29.85R
PHILLIPS       CLOUDY    56  51  82 W5        29.85S
TOMAHAWK       CLOUDY    54  51  90 CALM      29.86S
MEDFORD        CLOUDY    56  51  84 NW3       29.86S
MERRILL        CLOUDY    57  52  84 NW6       29.85S
$$

WIZ029-030-035-036-043>047-141500-
CENTRAL WISCONSIN

CITY           SKY/WX    TMP DP  RH WIND       PRES   REMARKS
WAUSAU         CLOUDY    60  51  72 NW7       29.84S
MOSINEE        CLOUDY    59  55  88 NW3       29.87R
MARSHFIELD     CLOUDY    60  53  77 W5        29.86S
STEVENS POINT  CLOUDY    59  52  77 W5        29.86R
WAUPACA        MOSUNNY   68  54  60 W7        29.84S
WAUTOMA        NOT AVBL
WISC RAPIDS    CLOUDY    61  54  77 W7        29.88R
CAMP DOUGLAS   NOT AVBL
$$

WIZ011>013-019>022-031-037>040-048>050-141500-
NORTHEAST WISCONSIN

CITY           SKY/WX    TMP DP  RH WIND       PRES   REMARKS
ANTIGO         CLOUDY    57  53  88 W5        29.85S
STURGEON BAY   CLOUDY    64  54  68 W5        29.83S
GREEN BAY      MOSUNNY   67  54  63 W6        29.83F
MANITOWOC      NOT AVBL
APPLETON       MOSUNNY   64  55  72 W10       29.85R
CLINTONVILLE   CLOUDY    61  52  72 W5        29.84R
OSHKOSH        SUNNY     70  57  63 VRB5      29.83F
$$

WIZ032>034-041-042-053>061-141500-
SOUTHWEST WISCONSIN

CITY           SKY/WX    TMP DP  RH WIND       PRES   REMARKS
LA CROSSE      CLOUDY    65  53  65 CALM      29.89S
SPARTA         CLOUDY    61  55  78 W6        29.89S
VIROQUA        FAIR      62  54  74 NW8       29.90S
BOSCOBEL       SUNNY     69  57  65 W5        29.89S
PRAIRIE DU CHI SUNNY     65  51  60 N3        29.89S
PLATTEVILLE    FAIR      69  57  65 W6        29.89F
$$

WIZ056-057-062-063-064-067-068-141500-
SOUTH CENTRAL WISCONSIN

CITY           SKY/WX    TMP DP  RH WIND       PRES   REMARKS
BARABOO/DELLS  SUNNY     65  53  65 W8        29.87S
LONE ROCK      NOT AVBL
WATERTOWN      SUNNY     67  57  70 W5        29.86S
MADISON        MOSUNNY   70  55  59 W5        29.87S
MIDDLETON      FAIR      69  58  67 W8        29.88S
MONROE         MOSUNNY   68  55  64 SW6       29.88S
JANESVILLE     PTSUNNY   66  55  68 W5        29.87R
$$

WIZ051-052-058>065-066-070>072-141500-
SOUTHEAST WISCONSIN

CITY           SKY/WX    TMP DP  RH WIND       PRES   REMARKS
MILWAUKEE      MOSUNNY   73  52  47 W10       29.86S
WAUKESHA       MOSUNNY   64  54  68 W5        29.87S
MILWAUKEE/TIMM NOT AVBL
RACINE         PTSUNNY   70  57  63 VRB6      29.88S
BURLINGTON     PTSUNNY   65  61  87 SW6       29.87R
KENOSHA        PTSUNNY   68  58  70 SW8       29.87S
FOND DU LAC    SUNNY     69  56  62 W7        29.84F
SHEBOYGAN      SUNNY     70  57  63 W3        29.84F
WEST BEND      CLOUDY    68  52  56 SW3       29.85S
JUNEAU         MOSUNNY   64  42  45 SW7       29.87S
$$

LSZ147-162-141500-
LAKE SUPERIOR

STATION/POSITION TIME  TEMP    WIND        PRES    WAVE
                       AIR SEA DIR/SP/G            HT/PER
                 (UTC) (F)     (DEG/KT/KT) (MB)    (FT/S)
W MID LAKE BUOY  1250   43 38  250/  4/  4 1009.9R   1
PORT WING        1300   55     270/ 10/ 14 1010.8
SAXON HARBOR     1300          310/  9/ 10 1010.5
$$

LMZ867-665-643>646-141500-
LAKE MICHIGAN

STATION/POSITION TIME  TEMP    WIND        PRES    WAVE
                       AIR SEA DIR/SP/G            HT/PER
                 (UTC) (F)     (DEG/KT/KT) (MB)    (FT/S)
N MID LAKE BUOY  1250   59 59  200/  4/  4 1008.8S   1
NORTHPORT PIER   1300   63     300/  6/ 10 1009.8S
KEWAUNEE LAKESHO 1300   66     280/  3/  5 1010.6F
SHEBOYGAN LAKESH 1300   68     260/  6/  6 1010.3F
PORT WASHINGTON  1300   71     280/  5/  9 1011.2S
MILWAUKEE LAKESH 1300   69     230/  6/  7   N/A
S MID LAKE BUOY  1250   65 62  240/  2/  2 1011.0S   0
KENOSHA   LAKESH 1300   69     230/  6/ 10   N/A
$$

TC  - TEMPERATURE IN CELSIUS
VSB - VISIBILITY IN STATUTE MILES
WCI - WIND CHILL INDEX
HX  - HEAT INDEX



USA.gov is the U.S. government's official web portal to all federal, state and local government web resources and services.